"Pseudo-MPEC" for C5ZACX2

Created 2021 Sep 16 10:07:07 UT using Find_Orb

Click here for an explanation of pseudo-MPECs

 
 Astrometry: 
     C5ZACX2  C2021 09 14.39182902 43 27.98 -17 28 10.3    ~9EAM 21.03GVNEOCPG96
     C5ZACX2  C2021 09 14.39867902 43 18.87 -17 27 06.9    ~9EAM 20.68GVNEOCPG96
     C5ZACX2  C2021 09 14.40386402 43 11.94 -17 26 19.1    ~9EAM 21.06GVNEOCPG96
     C5ZACX2  C2021 09 14.40903902 43 05.16 -17 25 31.9    ~9EAM       VNEOCPG96
     C5ZACX2 KC2021 09 14.49757202 41 07.11 -17 11 42.1    ~9ECb 20.21GVNEOCPG96
     C5ZACX2 KC2021 09 14.49875902 41 05.54 -17 11 31.1    ~9ECb 20.71GVNEOCPG96
     C5ZACX2 KC2021 09 14.49994702 41 03.98 -17 11 19.4    ~9ECb 20.44GVNEOCPG96
     C5ZACX2 KC2021 09 14.50113502 41 02.40 -17 11 08.7    ~9ECb 20.34GVNEOCPG96
     C5ZACX2 bC2021 09 15^*l0Orjr5*iA1VS%D%gmCS-5AstrometryRW.redacted;L/.d:UL01
     C5ZACX2 bC2021 09 15tiM?click;I^]4;7P@50a(-;5CmFQsV9here]JH1mOP/lSmOAb@LL01
     C5ZACX2 bC2021 09 15]U\D^i_Mf,tq%*1.3N!cX0/fX^-t%3W4or9;%HNw'XbxfuLg8^RGL01
     C5ZACX2 mC2021 09 15.43227002 23 04.53 -14 52 52.0    ~9FAq 20.14GVNEOCPG96
     C5ZACX2 mC2021 09 15.43268302 23 04.07 -14 52 48.8    ~9FAq 20.34GVNEOCPG96
     C5ZACX2 mC2021 09 15.43309602 23 03.62 -14 52 45.4    ~9FAq 20.62GVNEOCPG96
     C5ZACX2 mC2021 09 15.43350802 23 03.11 -14 52 40.7    ~9FAq 20.85GVNEOCPG96
     C5ZACX2 KC2021 09 16$d`2^?ypSorbgAiTrqfZIR0us3%J8Cd$\)#R\L$4kv0[P(,p=UH'H21
     C5ZACX2 KC2021 09 16*v)=U-/yq3[7g7=k-,\*qZx#Q;2SforB)LZ93iexplanation8+WH21
     C5ZACX2 KC2021 09 16M_HnPe_^KuhgGfJ-'];$yx*37=W)Hh0b6X8U=P'mrH:O46pUQNU*H21

Station data:
(G96) Mt. Lemmon Survey  (N32.442754 W110.788720)  US/Arizona.  Observers T.
   A. Pruyne, B. M. Africano, E. J. Christensen, G. A. Farneth, D. C. Fuls,
   A. R. Gibbs, A. D. Grauer, H. Gröller, J. A. Johnson, R. A. Kowalski, S.
   M. Larson, G. J. Leonard, D. Rankin, R. L. Seaman, F. C. Shelly. 1.5-m
   reflector + 10K CCD.
(H21) Astronomical Research Observatory, Westfield  (N39.483057 W87.968270)
   US/Illinois. 0.76-m f/3.0 astrograph + CCD.
(L01) Višnjan Observatory, Tičan  (N45.290900 E13.749300)  Croatia.
   Observers K. Korlević, E. Pettarin. Measurer E. Pettarin. 1.0-m f/2.9
   reflector + CCD.

Orbital elements:  C5ZACX2
   Perihelion 2021 Jul 17.197062 +/- 0.0704821 TT =  4:43:46 (JD 2459412.697062)
Epoch 2021 Sep 16.0 TT = JDT 2459473.5   Earth MOID: 0.0235   Ma: 0.0713
M  41.60289168 +/- 0.1757660        (J2000 ecliptic)          AutoNEOCP
n   0.68422502 +/- 0.00210164       Peri.  267.35340 +/- 0.0032630
a   1.27546950 +/- 0.00261174       Node     9.41573 +/- 0.0074182
e   0.3464657 +/- 0.00191312        Incl.    4.63694 +/- 0.0254916
P   1.44/526.13d           H 25.7   G  0.15   U  8.6  
q 0.83356300 +/- 0.000735896    Q 1.71737601 +/- 0.00596627
From 18 observations 2021 Sept. 14-16 (46.4 hr); mean residual 0".67
Residuals in arcseconds: 
210914 G96  2.0-  .28+    210914 G96  .02-  .01-    210915 G96  .05-  .20-    
210914 G96  .75-  .02+    210914 G96  .23-  .49-    210915 G96  .27+  .32-    
210914 G96  .34-  .40-    210915 L01  .00   1.0+    210915 G96  .30-  .87+    
210914 G96  2.0+  1.4-    210915 L01  1.3+  .03+    210916 H21  .21-  .44-    
210914 G96  .02-  .35-    210915 L01  .06-  .84+    210916 H21  .03-  .21-    
210914 G96  .10-  .53-    210915 G96  .23-  .12+    210916 H21  .12-  .10-    

Ephemerides (geocentric):
Date (UTC) HH   RA              Dec         delta   r     elong  mag " sig PA
---- -- -- --  -------------   -----------  ------ ------ -----  --- ---- ---
2021 09 16 10  02 06 44.920   -12 38 35.68  .05281 1.0471 141.4 20.9 .665 173
2021 09 16 11  02 06 06.725   -12 33 19.57  .05297 1.0473 141.6 20.9 .661 173
2021 09 16 12  02 05 28.780   -12 28 05.02  .05313 1.0476 141.8 20.9 .657 173
2021 09 16 13  02 04 51.083   -12 22 52.03  .05329 1.0478 142.0 20.9 .653 174
2021 09 16 14  02 04 13.633   -12 17 40.60  .05346 1.0480 142.2 20.9 .649 174
2021 09 16 15  02 03 36.427   -12 12 30.72  .05362 1.0482 142.4 20.9 .645 174
2021 09 16 16  02 02 59.464   -12 07 22.39  .05379 1.0485 142.6 20.9 .640 175
2021 09 16 17  02 02 22.742   -12 02 15.61  .05395 1.0487 142.8 20.9 .636 175
2021 09 16 18  02 01 46.259   -11 57 10.38  .05412 1.0489 143.0 20.9 .632 175
2021 09 16 19  02 01 10.013   -11 52 06.69  .05428 1.0492 143.2 20.9 .627 176
2021 09 16 20  02 00 34.002   -11 47 04.53  .05445 1.0494 143.3 20.9 .623 176
2021 09 16 21  01 59 58.225   -11 42 03.91  .05462 1.0496 143.5 20.9 .619 177
2021 09 16 22  01 59 22.679   -11 37 04.82  .05479 1.0499 143.7 20.9 .614 177
2021 09 16 23  01 58 47.362   -11 32 07.25  .05495 1.0501 143.9 20.9 .610 177
2021 09 17 00  01 58 12.274   -11 27 11.20  .05512 1.0503 144.1 20.9 .606 178
2021 09 17 01  01 57 37.412   -11 22 16.68  .05529 1.0505 144.3 20.9 .601 178
2021 09 17 02  01 57 02.774   -11 17 23.66  .05546 1.0508 144.5 20.9 .597 179
2021 09 17 03  01 56 28.358   -11 12 32.15  .05563 1.0510 144.7 21.0 .592 179
2021 09 17 04  01 55 54.163   -11 07 42.14  .05580 1.0512 144.9 21.0 .588   0
2021 09 17 05  01 55 20.188   -11 02 53.64  .05597 1.0515 145.0 21.0 .584   1
2021 09 17 06  01 54 46.429   -10 58 06.62  .05614 1.0517 145.2 21.0 .580   1
2021 09 17 07  01 54 12.886   -10 53 21.09  .05632 1.0519 145.4 21.0 .575   2
2021 09 17 08  01 53 39.557   -10 48 37.05  .05649 1.0522 145.6 21.0 .571   2
2021 09 17 09  01 53 06.440   -10 43 54.49  .05666 1.0524 145.8 21.0 .567   3
2021 09 17 10  01 52 33.534   -10 39 13.39  .05683 1.0526 145.9 21.0 .563   4
2021 09 17 11  01 52 00.836   -10 34 33.77  .05701 1.0528 146.1 21.0 .559   4
2021 09 17 12  01 51 28.346   -10 29 55.60  .05718 1.0531 146.3 21.0 .555   5
2021 09 17 13  01 50 56.061   -10 25 18.89  .05736 1.0533 146.5 21.0 .551   6
2021 09 17 14  01 50 23.979   -10 20 43.63  .05753 1.0535 146.7 21.0 .547   6
2021 09 17 15  01 49 52.100   -10 16 09.82  .05771 1.0538 146.8 21.0 .543   7
2021 09 17 16  01 49 20.422   -10 11 37.44  .05788 1.0540 147.0 21.0 .539   8
2021 09 17 17  01 48 48.943   -10 07 06.50  .05806 1.0542 147.2 21.0 .536   8
2021 09 17 18  01 48 17.661   -10 02 36.99  .05824 1.0545 147.3 21.0 .532   9
2021 09 17 19  01 47 46.574   -09 58 08.89  .05841 1.0547 147.5 21.0 .529  10
2021 09 17 20  01 47 15.683   -09 53 42.21  .05859 1.0549 147.7 21.0 .525  11
2021 09 17 21  01 46 44.984   -09 49 16.95  .05877 1.0551 147.9 21.0 .522  12
2021 09 17 22  01 46 14.476   -09 44 53.08  .05895 1.0554 148.0 21.0 .519  12
2021 09 17 23  01 45 44.158   -09 40 30.61  .05913 1.0556 148.2 21.0 .516  13
2021 09 18 00  01 45 14.028   -09 36 09.53  .05930 1.0558 148.4 21.0 .513  14
2021 09 18 01  01 44 44.084   -09 31 49.83  .05948 1.0561 148.5 21.0 .510  15
2021 09 18 02  01 44 14.326   -09 27 31.52  .05966 1.0563 148.7 21.0 .508  16
2021 09 18 03  01 43 44.752   -09 23 14.57  .05984 1.0565 148.9 21.0 .505  17
2021 09 18 04  01 43 15.360   -09 18 58.99  .06003 1.0568 149.0 21.0 .502  18
2021 09 18 05  01 42 46.148   -09 14 44.77  .06021 1.0570 149.2 21.0 .500  19
2021 09 18 06  01 42 17.116   -09 10 31.90  .06039 1.0572 149.4 21.0 .498  20
2021 09 18 07  01 41 48.262   -09 06 20.38  .06057 1.0574 149.5 21.0 .496  21
2021 09 18 08  01 41 19.585   -09 02 10.19  .06075 1.0577 149.7 21.0 .494  22
2021 09 18 09  01 40 51.082   -08 58 01.34  .06094 1.0579 149.8 21.0 .492  23